Probability
0 0 0 0 0 0 0 0 0 2 5 9 13 16 16 14 15 19 22 23 27 33 36 40 43 43 43 44 43 41 38 36 33 30 28 26 24 22 22 22 21 20 19 19
0 0 0 0 0 0 0 0 0 1 5 10 14 16 14 12 13 17 21 23 28 33 36 38 40 43 45 46 45 42 40 37 34 31 29 26 24 23 21 21 20 20 19 18
0 0 0 0 0 0 1 3 3 4 8 13 17 18 14 10 10 14 19 24 28 32 33 33 35 40 44 47 47 45 42 40 37 34 31 27 24 23 21 19 19 19 18 18
0 0 0 0 1 2 5 8 9 11 14 17 20 20 15 11 11 15 20 25 27 27 27 28 29 33 38 44 46 46 44 42 40 37 33 28 26 24 21 19 18 17 17 17
0 0 0 1 2 4 7 11 15 19 20 20 22 21 17 14 15 20 24 25 25 24 23 24 25 27 33 40 45 46 45 44 42 39 35 31 28 25 22 20 18 17 16 16
0 1 1 2 4 6 8 12 17 22 23 21 20 18 16 17 20 23 25 23 23 23 22 22 24 27 31 37 41 43 43 42 40 38 34 31 28 25 23 22 20 18 16 15
1 1 2 3 5 7 8 9 14 18 20 19 17 15 16 19 21 22 22 21 21 21 22 22 24 27 30 33 34 35 35 35 34 33 31 28 25 23 23 22 20 17 13 11
1 2 3 4 5 6 7 7 8 10 12 14 16 17 19 19 18 18 19 19 19 18 19 20 22 25 28 28 26 26 27 27 28 28 27 24 21 19 18 18 16 12 8 6
3 3 3 4 5 5 5 5 5 6 7 10 14 17 18 17 15 16 17 18 17 14 14 17 19 22 24 24 22 22 23 23 22 23 21 18 15 13 12 10 7 5 3 2
5 5 4 5 5 5 5 5 5 6 7 9 11 12 13 14 13 14 15 15 14 13 13 15 18 21 22 22 21 21 21 20 18 16 14 11 8 6 5 3 1 1 0 0
4 4 5 6 6 6 7 7 7 7 8 8 9 9 10 11 11 12 12 12 12 13 13 15 18 21 22 21 20 20 19 17 15 12 9 6 4 3 2 0 0 0 0 0
1 2 5 7 8 8 8 8 8 8 7 8 8 8 8 8 9 10 10 11 11 11 11 13 16 19 20 20 19 17 16 14 12 10 7 6 4 2 1 0 0 0 0 0
0 1 4 6 7 6 6 7 7 7 6 6 7 7 6 6 8 9 10 10 11 10 10 11 13 15 18 19 17 16 14 12 10 8 6 5 4 2 1 0 0 0 0 0
1 1 4 6 6 5 5 5 6 5 3 3 5 6 5 5 6 7 7 8 9 10 10 10 11 13 16 17 16 14 13 10 8 6 5 4 3 2 1 0 0 0 0 0
2 2 4 6 6 5 4 3 3 3 2 3 5 6 5 4 5 4 3 5 8 10 10 11 11 12 15 16 15 13 11 8 7 6 5 4 3 2 1 0 0 0 0 0
3 3 3 4 4 4 3 1 1 2 3 5 6 6 5 5 4 3 2 5 8 10 11 11 11 12 14 15 14 11 9 7 6 6 5 3 2 1 0 0 0 0 0 0
3 2 1 1 2 2 2 1 1 3 4 5 7 7 6 5 4 3 3 6 10 11 11 11 12 12 13 14 13 10 8 7 6 6 4 2 1 0 0 0 0 0 0 0
1 0 0 1 2 2 2 2 3 4 5 6 6 7 6 5 4 3 4 6 9 11 12 11 11 12 12 13 12 9 7 6 6 5 2 1 0 0 0 0 0 0 0 0
0 0 0 1 2 3 3 3 2 3 4 5 5 4 4 4 4 4 5 6 8 9 9 10 10 10 11 11 10 8 7 5 4 4 2 1 1 1 0 0 0 0 0 0
0 0 1 1 2 3 2 2 1 1 2 2 2 2 3 4 4 5 5 6 6 6 5 5 7 8 8 8 8 7 7 6 4 3 3 3 2 1 0 0 0 0 0 0
0 1 2 2 2 1 1 1 0 0 1 2 1 1 3 3 3 3 3 3 3 3 1 1 3 4 4 5 6 6 6 6 5 4 3 3 2 1 0 0 0 0 0 0
1 1 2 1 1 0 0 0 1 1 2 4 3 2 2 2 1 1 1 1 1 1 0 0 0 1 1 3 4 5 6 6 6 5 4 3 1 0 0 0 0 0 0 0
0 1 1 0 0 1 1 1 1 2 3 3 2 1 1 1 0 0 0 0 0 0 0 0 0 0 0 1 3 4 5 6 6 5 5 4 2 0 0 0 0 0 1 1
0 0 0 0 0 1 2 1 1 1 1 1 0 0 0 0 0 0 0 0 0 0 0 0 0 0 0 1 2 3 4 4 4 4 4 4 2 1 0 0 0 1 2 2
0 0 0 0 0 1 1 1 0 0 0 0 0 0 0 0 0 0 0 0 0 0 0 0 0 0 0 0 1 2 3 3 3 3 3 4 4 2 1 1 1 1 2 3
0 0 0 0 0 0 0 0 0 0 0 0 0 0 0 0 0 0 0 0 0 0 0 0 0 0 0 0 0 1 2 3 3 3 4 5 5 3 2 2 2 2 2 1
0 0 0 0 0 0 0 0 0 0 0 0 0 0 0 0 0 0 0 0 0 0 0 0 0 0 0 0 0 0 1 2 2 3 4 6 6 4 3 3 3 2 1 0
Wind_Speed
5 6 3 4 6 4 4 7 7 7 8 10 9 8 7 7 7 7 7 7 8 7 7 8 8 8 8 8 7 8 8 7 7 6 5 5 4 4 4 4 4 4 3 3
4 4 4 5 6 6 6 6 5 4 5 5 5 4 5 7 8 8 8 7 7 8 8 8 8 8 8 7 7 7 8 8 6 6 5 5 5 5 4 4 3 3 4 4
4 5 4 5 6 5 4 4 5 7 7 4 3 5 7 7 9 9 8 7 7 7 7 7 7 7 8 7 7 7 7 7 7 7 6 6 6 5 5 5 4 4 4 4
1 2 6 9 5 2 1 1 1 1 3 5 5 2 3 5 7 7 7 7 6 6 5 5 5 5 5 6 6 7 7 7 7 7 6 6 5 5 5 4 4 4 3 3
3 3 7 7 5 1 2 2 1 3 4 4 6 6 3 1 5 6 7 6 6 6 5 5 5 5 5 6 6 6 6 6 6 7 7 6 6 5 4 4 3 3 3 3
3 3 6 6 6 2 4 1 2 4 6 5 5 3 3 2 4 5 5 4 4 4 4 4 4 5 5 5 5 5 5 5 6 6 6 7 7 5 4 4 4 3 2 2
4 5 7 6 6 3 3 5 2 2 5 5 4 5 5 4 3 4 5 4 5 6 5 4 4 6 5 5 5 5 4 4 4 4 5 5 4 4 3 3 3 3 2 1
2 3 7 4 4 2 4 3 1 1 2 3 3 4 4 4 4 4 4 4 5 5 4 3 4 5 5 4 4 4 4 4 3 3 3 3 4 3 3 3 3 2 2 1
5 6 6 2 1 2 2 2 0 0 1 4 4 3 3 3 3 3 5 4 4 5 4 3 3 4 4 3 3 4 4 4 3 3 3 3 4 4 3 3 3 2 2 1
1 3 2 1 1 1 1 1 0 1 2 3 4 4 4 4 3 2 3 3 4 5 5 3 2 3 3 3 4 5 4 3 3 4 3 3 2 3 3 3 3 2 2 2
3 4 3 3 2 1 2 3 3 3 2 4 6 5 4 3 3 2 3 2 3 4 4 4 4 3 3 4 4 4 4 3 3 3 3 3 2 2 3 3 4 5 3 3
6 6 3 5 3 1 1 1 1 3 3 3 5 5 4 3 3 3 3 2 3 4 5 4 4 3 3 4 5 5 4 3 3 3 3 3 3 2 3 1 2 4 4 4
6 6 4 5 3 1 1 1 1 3 3 2 3 5 4 3 2 3 3 3 3 4 4 4 4 3 2 3 5 5 4 3 3 3 3 3 3 3 1 2 2 0 1 2
5 3 2 3 3 2 2 1 1 2 2 3 3 4 4 4 3 3 3 2 4 4 4 4 4 3 2 3 4 4 3 3 3 3 3 3 3 3 3 2 1 1 2 0
6 5 5 3 1 2 2 3 3 2 2 3 3 4 5 5 3 2 2 2 4 5 4 4 4 3 2 3 4 4 3 2 2 2 2 2 2 2 2 2 2 1 0 1
3 1 3 3 3 2 3 3 3 3 3 3 3 4 4 5 4 3 2 3 4 4 4 3 4 3 3 4 4 3 2 3 3 3 2 2 2 2 2 2 2 1 1 1
3 3 3 3 3 3 4 4 5 4 4 4 4 5 5 5 3 3 2 2 4 4 4 3 4 3 3 4 4 3 2 3 4 3 2 2 2 2 2 2 2 2 2 2
3 4 5 5 5 5 4 4 4 5 4 5 5 5 5 5 4 3 3 3 4 3 2 3 3 3 3 3 3 2 3 2 2 2 2 2 2 2 2 2 3 3 2 1
1 2 2 3 4 5 5 4 3 3 4 5 5 5 4 4 4 4 4 5 5 3 2 2 4 4 3 3 3 2 2 2 2 2 2 2 2 1 2 2 3 3 3 2
1 2 2 2 3 4 5 4 4 4 3 4 4 4 4 4 5 5 4 3 3 3 3 3 3 3 3 2 2 2 3 3 2 2 2 1 1 1 1 2 2 2 2 2
1 2 2 3 3 4 5 5 5 4 3 4 5 5 5 5 5 5 4 2 2 2 3 4 3 2 2 2 2 2 3 2 2 2 2 1 1 1 1 1 1 1 1 1
1 2 3 4 4 3 3 4 4 4 4 4 4 5 5 4 4 3 3 3 3 4 3 2 2 2 2 2 2 2 3 3 2 2 1 1 2 2 1 1 1 1 1 1
1 2 3 4 5 4 4 4 4 4 5 5 5 5 4 4 4 4 2 2 2 4 3 2 3 3 3 2 2 2 3 3 2 2 2 2 2 2 2 2 1 1 1 1
2 3 3 4 5 5 4 3 4 4 4 3 4 4 4 3 2 2 2 4 4 4 3 3 4 3 3 2 2 2 2 2 1 1 2 2 1 1 2 2 1 1 2 2
3 4 4 4 4 3 3 3 3 3 3 2 3 3 2 3 3 2 3 4 5 5 3 3 3 3 2 2 2 2 2 2 2 2 2 2 2 2 2 2 2 2 2 2
3 2 2 2 2 3 3 3 3 3 3 3 2 2 2 2 3 3 3 4 5 4 3 2 2 2 2 2 2 2 2 2 2 2 2 2 2 2 2 2 2 2 2 2
2 2 2 2 1 2 3 3 3 2 3 3 3 2 3 3 3 3 4 3 3 3 3 2 2 2 2 2 2 2 2 2 2 2 2 2 2 2 2 3 2 2 2 2
Wind_Direction
233 243 247 263 269 257 219 199 200 224 215 221 207 183 172 160 144 137 135 143 149 153 160 160 162 168 172 175 174 172 170 176 187 187 182 179 179 183 183 185 191 194 194 203
310 299 298 287 275 255 242 225 211 210 246 228 196 159 161 160 155 151 151 158 156 152 156 162 167 170 169 172 174 170 174 183 185 177 177 180 185 183 181 191 197 190 200 208
280 299 339 272 246 247 253 247 197 207 220 176 160 165 175 172 164 161 164 161 157 155 157 163 170 169 171 175 169 169 177 183 182 182 185 189 187 180 187 194 196 202 209 208
222 359 247 246 258 224 143 333 346 172 179 163 162 163 162 161 155 160 158 147 146 146 144 146 152 161 169 164 167 174 180 184 182 180 185 186 181 186 192 188 193 201 206 211
152 215 271 288 297 275 136 324 346 124 127 119 115 75 34 114 141 148 148 146 148 151 146 140 145 152 155 157 161 171 181 185 185 181 181 182 185 191 190 183 191 197 197 201
161 193 238 256 293 297 100 334 312 121 126 126 109 124 230 202 134 125 128 132 138 135 124 129 142 139 145 155 160 179 188 189 185 179 179 186 191 191 189 182 188 189 193 201
184 218 253 272 308 23 121 225 259 139 145 145 166 192 193 166 136 132 132 128 127 125 123 139 142 135 143 160 178 189 184 177 174 178 182 183 184 183 174 174 171 175 174 190
178 207 251 306 21 94 220 236 190 98 128 121 132 124 139 136 130 134 125 123 130 124 120 128 138 138 143 172 188 175 165 163 169 176 179 170 164 168 161 159 159 164 154 146
198 220 249 273 190 228 187 160 199 140 136 125 121 132 138 128 123 128 137 136 134 132 126 124 134 141 151 176 164 151 147 154 160 154 155 158 160 160 149 150 158 165 161 170
282 268 286 324 357 358 50 107 118 135 129 117 124 122 119 120 120 125 125 133 137 134 132 131 132 130 139 137 131 128 135 149 153 148 150 146 151 160 156 161 161 159 168 183
266 278 339 337 335 25 22 34 57 64 91 118 119 118 122 122 133 136 126 124 132 141 138 128 113 108 114 122 121 120 127 137 140 141 140 134 131 154 165 181 179 175 190 193
239 239 214 254 259 167 79 33 110 95 61 84 119 127 121 127 141 140 135 123 125 125 122 119 114 113 114 119 121 122 123 131 142 146 142 136 124 73 40 100 155 186 196 193
235 253 237 249 253 216 173 206 157 131 129 116 114 129 128 133 134 124 126 134 139 135 130 125 120 117 116 118 120 124 136 144 145 143 139 137 142 143 131 14 28 78 201 199
252 246 258 253 235 190 167 156 120 110 137 141 146 144 133 122 113 117 125 146 140 131 127 125 123 125 131 127 122 123 130 134 137 145 146 150 157 166 166 169 167 353 359 346
254 229 211 207 176 137 133 123 111 112 120 125 130 130 128 127 126 124 106 120 125 124 127 130 131 135 134 129 128 129 129 134 132 133 142 149 147 143 143 145 144 143 68 358
260 218 162 158 161 158 143 137 139 158 156 142 129 128 130 130 129 127 110 121 130 137 144 141 146 149 140 137 134 132 132 134 131 132 137 138 140 147 154 155 152 152 165 211
210 210 184 177 175 165 166 169 167 166 158 154 152 143 131 125 128 133 124 142 148 151 156 153 154 151 146 147 143 143 141 142 135 135 148 154 154 167 171 163 166 177 199 199
203 187 181 178 176 168 164 157 151 154 164 170 159 145 139 143 153 154 152 146 128 122 153 170 165 154 152 156 151 148 143 144 153 161 159 155 165 176 176 174 179 182 192 189
106 154 172 171 168 160 159 154 149 153 154 151 145 151 158 159 158 154 143 137 136 149 206 190 149 140 153 170 153 140 140 141 142 149 160 163 168 181 184 182 181 177 173 173
103 110 132 149 156 147 146 145 141 137 134 134 136 140 142 147 144 141 140 152 179 189 186 163 149 153 167 170 143 132 140 145 145 142 140 146 157 180 177 169 166 170 172 177
146 135 148 155 149 148 153 151 147 149 152 149 148 149 148 148 144 140 137 156 229 179 153 152 152 162 166 157 140 134 134 134 134 137 136 136 148 150 146 150 153 152 154 153
174 165 166 156 143 147 155 150 149 155 153 147 140 140 137 139 147 148 158 182 190 164 151 157 160 156 148 134 131 137 137 135 143 156 160 156 159 160 150 148 154 148 137 138
79 126 132 138 141 143 139 137 141 145 144 145 146 147 151 160 159 151 168 201 163 161 156 157 151 146 143 129 125 131 136 138 144 157 161 162 163 165 163 163 155 142 142 144
89 93 104 114 117 118 117 124 131 133 138 144 147 152 150 143 148 185 171 158 151 146 148 154 154 151 140 126 123 128 136 138 138 139 137 134 131 128 131 137 135 126 122 117
96 96 101 111 114 121 128 129 118 117 120 120 127 141 144 147 154 162 138 134 133 131 125 136 150 149 126 116 121 124 127 130 129 125 122 120 125 124 120 120 123 126 126 123
95 106 116 126 136 136 132 126 128 133 129 125 123 128 130 125 124 121 119 124 124 121 115 110 114 117 114 114 116 117 117 110 103 108 117 120 120 119 119 120 118 118 122 127
74 79 79 68 78 116 122 121 128 136 139 137 137 133 131 121 111 111 116 116 118 117 117 113 111 113 114 115 111 111 110 111 111 113 117 121 122 126 131 130 126 121 123 130